Location: ??????
(33.3472°N, 35.4764°E)
Time: 20:17:15
(UTC+00:00)

H-2A R/B - Pass Details

Date: 21 August 2019
Orbit: 529 x 654 km, 98.3° (Epoch: 23 October)

Event Time Altitude Azimuth Distance (km) Brightness Sun altitude
Rises 02:18:03 0° 354° (N) 2,873 6.2 -10.0°
Reaches altitude 10° 02:20:44 10° 338° (NNW) 1,941 5.1 -9.5°
Maximum altitude 02:23:46 20° 292° (WNW) 1,389 4.0 -8.9°
Enters shadow 02:26:34 11° 246° (WSW) 1,837 4.3 -8.4°
